Regional Weather Roundup
Issued by NWS Northern Indiana

Home | Current Version | Previous Version | Text Only | Print | Product List | Glossary On
Versions: 1 2 3 4 5 6 7 8 9 10 11 12 13 14 15 16 17 18 19 20 21 22 23 24 25 26 27 28 29 30 31 32 33 34 35 36 37 38 39 40 41 42 43 44 45 46 47 48 49 50
000
ASUS43 KIWX 301010
RWRIWX

KIWX WEATHER ROUNDUP
NATIONAL WEATHER SERVICE NORTHERN INDIANA
600 AM EDT SUN APR 30 2017

NOTE: "FAIR" INDICATES FEW OR NO CLOUDS BELOW 12,000 FEET WITH NO
SIGNIFICANT WEATHER AND/OR OBSTRUCTIONS TO VISIBILITY.

* THESE STATIONS ARE NOT UNDER NWS QUALITY CONTROL. THEY ALSO MAY NOT
  REPORT WEATHER SUCH AS PRECIPITATION OR FOG.

INZ001>027-301100-
NORTHERN INDIANA

CITY           SKY/WX    TMP DP  RH WIND       PRES   REMARKS
GARY*          LGT RAIN  46  45  93 NE7       29.91F
VALPARAISO     LGT RAIN  47  45  93 E14       29.89F FOG
MICHIGAN CITY* RAIN      45  45 100 E6        29.91F
LAPORTE*       LGT RAIN  45  43  95 E14       29.90F
KNOX*          CLOUDY    45  36  70 E13       29.89F
SOUTH BEND     LGT RAIN  43  42  97 E17G23    29.92F
GOSHEN         CLOUDY    45  40  82 E8        29.96R
MONTICELLO*    CLOUDY    49  47  95 E8        29.88R
LOGANSPORT*    CLOUDY    46  45  93 E9        29.91R
ROCHESTER*     CLOUDY    46  45  93 E13       29.93F
WARSAW*        CLOUDY    45  41  87 E14       29.94F
ANGOLA*        CLOUDY    43  37  81 E8        29.97R
FORT WAYNE     CLOUDY    46  43  89 E9        29.95R
HUNTINGTON*    CLOUDY   N/A N/A N/A E6        29.94R
PERU/GRISSOM   CLOUDY    48  48 100 NE10      29.90S

$$
INZ028>050-301100-
CENTRAL INDIANA

CITY           SKY/WX    TMP DP  RH WIND       PRES   REMARKS
LAFAYETTE      CLOUDY    53  53 100 E10       29.86R
KOKOMO*        CLOUDY    49  47  93 E12       29.91S
MUNCIE*        CLOUDY    51  49  92 SE9       29.90F
INDIANAPOLIS   CLOUDY    58  56  93 E6        29.86F

$$
MIZ043>046-050>051-056>058-064>065-071>073-077>080-301100-
SOUTHWEST LOWER MICHIGAN

CITY           SKY/WX    TMP DP  RH WIND       PRES   REMARKS
BATTLE CREEK   CLOUDY    43  39  86 E10       30.00F
BENTON HARBOR  CLOUDY    45  40  82 E12       29.93F
COLDWATER*     CLOUDY    44  41  88 E7        29.99S
HILLSDALE*     DRIZZLE   43  37  81 E14G24    29.98R
HOLLAND        LGT RAIN  42  40  92 E14       29.98F
GRAND RAPIDS   LGT RAIN  41  41 100 E14       30.02R FOG
KALAMAZOO      RAIN      43  38  82 E8        29.99S
STURGIS*       CLOUDY    43  41  90 E8        29.98R
THREE RIVERS*  LGT RAIN  43  40  88 E7        29.99R

$$
OHZ001>008-015>018-024>025-301100-
NORTHWEST OHIO

CITY           SKY/WX    TMP DP  RH WIND       PRES   REMARKS
WAUSEON*       CLOUDY    46  45  93 E14       29.98F
DEFIANCE       CLOUDY    46  43  89 E17G25    29.96F
FINDLAY        CLOUDY    48  45  89 E10       29.97R
TOLEDO EXPRESS CLOUDY    47  45  93 E15G24    29.99R
TOLEDO METCALF CLOUDY    48  46  93 E13G18    30.02R
LIMA           CLOUDY    47  47 100 E12       29.95F

$$
AND FOR LAKE MICHIGAN COASTAL AND OPEN LAKE BUOY OBSERVATIONS

STATION/POSITION TEMP    WIND        PRES    VSBY  WAVE
                 AIR SEA DIR/SP/G                  HT/PER
                 (F)     (DEG/KT/KT) (MB)    (MI)  (FT/S)
CALUMET HARBOR    44      20/ 11/ 15 1012.4F
MICHIGAN CITY     45      70/  9/ 10   N/A
BURNS HARBOR      47      CALM  /  1 1012.9
SOUTH LAKE BUOY   40 40   40/ 17/ 21 1015.7          5/ 6
4 MI NW BRIDGMAN  45 46  130/  8/ 12 1014.1          3/ 6
MICHIGAN CITY     46 47                N/A           4/ 6

$$
&&




USA.gov is the U.S. government's official web portal to all federal, state and local government web resources and services.